University, MS

8:36 PM CST on February 13, 2016 (GMT -0600)
University-Oxford

Weather History for KUOX - April, 2013

Change the Weather History Date:

Monday, April 22, 2013

  Actual Average Record
Temperature  
Mean Temperature 57 °F -  
Max Temperature 73 °F 73 °F 93 °F (1987)
Min Temperature 41 °F 51 °F 36 °F (1931)
Degree Days  
Heating Degree Days 8    
Growing Degree Days 7 (Base 50)    
Moisture  
Dew Point 44 °F    
Average Humidity 62    
Maximum Humidity 93    
Minimum Humidity 36    
Precipitation  
Precipitation 0.00 in - - ()
Sea Level Pressure  
Sea Level Pressure 30.16 in    
Wind  
Wind Speed 2 mph (SE)    
Max Wind Speed 10 mph    
Max Gust Speed -    
Visibility 9 miles    
Events      
Averages and records for this station are not official NWS values.
T = Trace of Precipitation, MM = Missing Value Source: NWS Daily Summary

Daily Weather History Graph

Daily Weather History Graph

Search for Another Location

Airport or City:

Trip Planner

Search our weather history database for the weather conditions in past years. The results will help you decide how hot, cold, wet, or windy it might be!

Date:

Astronomy

Apr. 22, 2013 Rise Set
Actual Time 6:18 AM CDT 7:35 PM CDT
Civil Twilight 5:51 AM CDT 8:01 PM CDT
Nautical Twilight 5:20 AM CDT 8:33 PM CDT
Astronomical Twilight 4:47 AM CDT 9:06 PM CDT
Moon 4:31 PM CDT (4/22) 4:03 AM CDT (4/22)
Length of Visible Light 14h 10m
Length of Day
13h 17m
Waxing Gibbous, 88% of the Moon is Illuminated
Apr 22
Waxing Gibbous
Apr 25
Full
May 2
Last Quarter
May 9
New
May 17
First Quarter

Hourly Weather History & Observations

Time (CDT) Temp. Windchill Dew Point Humidity Pressure Visibility Wind Dir Wind Speed Gust Speed Precip Events Conditions
12:15 AM 53.6 °F - 39.2 °F 58% 30.21 in 10.0 mi Calm Calm - N/A   Clear
12:35 AM 50.0 °F - 41.0 °F 71% 30.22 in 10.0 mi Calm Calm - N/A   Clear
12:55 AM 48.2 °F - 41.0 °F 76% 30.21 in 10.0 mi Calm Calm - N/A   Clear
1:15 AM 48.2 °F - 41.0 °F 76% 30.21 in 10.0 mi Calm Calm - N/A   Clear
1:35 AM 46.4 °F - 41.0 °F 81% 30.21 in 10.0 mi Calm Calm - N/A   Clear
1:55 AM 46.4 °F - 41.0 °F 81% 30.21 in 9.0 mi Calm Calm - N/A   Clear
2:15 AM 46.4 °F - 41.0 °F 81% 30.20 in 10.0 mi Calm Calm - N/A   Clear
2:35 AM 44.6 °F - 41.0 °F 87% 30.20 in 10.0 mi Calm Calm - N/A   Clear
2:55 AM 44.6 °F - 41.0 °F 87% 30.20 in 10.0 mi Calm Calm - N/A   Clear
3:15 AM 44.6 °F - 41.0 °F 87% 30.20 in 10.0 mi Calm Calm - N/A   Clear
3:35 AM 44.6 °F - 41.0 °F 87% 30.20 in 10.0 mi Calm Calm - N/A   Clear
3:55 AM 42.8 °F - 39.2 °F 87% 30.19 in 10.0 mi Calm Calm - N/A   Clear
4:15 AM 41.0 °F - 39.2 °F 93% 30.19 in 9.0 mi Calm Calm - N/A   Clear
4:35 AM 41.0 °F - 39.2 °F 93% 30.20 in 9.0 mi Calm Calm - N/A   Clear
4:55 AM 41.0 °F - 39.2 °F 93% 30.19 in 9.0 mi Calm Calm - N/A   Clear
5:15 AM 41.0 °F - 39.2 °F 93% 30.19 in 10.0 mi Calm Calm - N/A   Clear
5:35 AM 41.0 °F - 39.2 °F 93% 30.19 in 9.0 mi Calm Calm - N/A   Clear
5:55 AM 41.0 °F - 39.2 °F 93% 30.19 in 9.0 mi Calm Calm - N/A   Clear
6:15 AM 41.0 °F 39.0 °F 39.2 °F 93% 30.20 in 9.0 mi SE 3.5 mph - N/A   Clear
6:35 AM 46.4 °F 44.3 °F 41.0 °F 81% 30.20 in 8.0 mi SE 4.6 mph - N/A   Clear
6:55 AM 48.2 °F - 41.0 °F 76% 30.21 in 8.0 mi SE 3.5 mph - N/A   Clear
7:15 AM 50.0 °F - 41.0 °F 71% 30.21 in 8.0 mi SE 4.6 mph - N/A   Clear
7:35 AM 51.8 °F - 41.0 °F 67% 30.21 in 8.0 mi SE 3.5 mph - N/A   Clear
7:55 AM 53.6 °F - 41.0 °F 62% 30.22 in 9.0 mi SE 4.6 mph - N/A   Clear
8:15 AM 55.4 °F - 41.0 °F 58% 30.22 in 7.0 mi SSE 4.6 mph - N/A   Clear
8:35 AM 57.2 °F - 42.8 °F 59% 30.22 in 6.0 mi SE 4.6 mph - N/A   Haze
8:55 AM 59.0 °F - 42.8 °F 55% 30.23 in 8.0 mi SE 5.8 mph - N/A   Clear
9:15 AM 59.0 °F - 44.6 °F 59% 30.23 in 8.0 mi SE 4.6 mph - N/A   Clear
9:35 AM 60.8 °F - 44.6 °F 55% 30.23 in 8.0 mi SE 4.6 mph - N/A   Clear
9:55 AM 62.6 °F - 46.4 °F 55% 30.23 in 8.0 mi SE 8.1 mph - N/A   Clear
10:15 AM 64.4 °F - 48.2 °F 56% 30.24 in 7.0 mi SSE 3.5 mph - N/A   Clear
10:35 AM 64.4 °F - 48.2 °F 56% 30.23 in 8.0 mi SE 6.9 mph - N/A   Clear
10:55 AM 64.4 °F - 48.2 °F 56% 30.23 in 8.0 mi SSE 4.6 mph - N/A   Clear
11:15 AM 66.2 °F - 46.4 °F 49% 30.22 in 8.0 mi SE 6.9 mph - N/A   Clear
11:35 AM 66.2 °F - 48.2 °F 52% 30.21 in 8.0 mi SSE 3.5 mph - N/A   Clear
11:55 AM 68.0 °F - 48.2 °F 49% 30.20 in 8.0 mi ESE 5.8 mph - N/A   Partly Cloudy
12:15 PM 68.0 °F - 46.4 °F 46% 30.19 in 9.0 mi SSE 3.5 mph - N/A   Partly Cloudy
12:35 PM 69.8 °F - 44.6 °F 40% 30.19 in 8.0 mi East 5.8 mph - N/A   Partly Cloudy
12:55 PM 69.8 °F - 44.6 °F 40% 30.18 in 9.0 mi South 4.6 mph - N/A   Scattered Clouds
1:15 PM 71.6 °F - 46.4 °F 41% 30.17 in 9.0 mi SE 6.9 mph - N/A   Scattered Clouds
1:35 PM 71.6 °F - 44.6 °F 38% 30.17 in 9.0 mi SSW 10.4 mph - N/A   Mostly Cloudy
1:55 PM 71.6 °F - 44.6 °F 38% 30.16 in 8.0 mi SE 3.5 mph - N/A   Scattered Clouds
2:15 PM 71.6 °F - 44.6 °F 38% 30.14 in 9.0 mi SSE 4.6 mph - N/A   Partly Cloudy
2:35 PM 71.6 °F - 44.6 °F 38% 30.14 in 9.0 mi South 4.6 mph - N/A   Mostly Cloudy
2:55 PM 71.6 °F - 46.4 °F 41% 30.14 in 8.0 mi SSE 4.6 mph - N/A   Mostly Cloudy
3:15 PM 71.6 °F - 44.6 °F 38% 30.12 in 5.0 mi SE 3.5 mph - N/A   Haze
3:35 PM 71.6 °F - 46.4 °F 41% 30.11 in 8.0 mi ESE 5.8 mph - N/A   Mostly Cloudy
3:55 PM 71.6 °F - 44.6 °F 38% 30.10 in 9.0 mi South 4.6 mph - N/A   Scattered Clouds
4:15 PM 73.4 °F - 46.4 °F 38% 30.10 in 9.0 mi SE 3.5 mph - N/A   Mostly Cloudy
4:35 PM 73.4 °F - 46.4 °F 38% 30.08 in 8.0 mi SE 8.1 mph - N/A   Scattered Clouds
5:15 PM 73.4 °F - 44.6 °F 36% 30.07 in 9.0 mi SE 5.8 mph - N/A   Partly Cloudy
5:35 PM 71.6 °F - 44.6 °F 38% 30.07 in 8.0 mi SE 3.5 mph - N/A   Clear
5:55 PM 71.6 °F - 46.4 °F 41% 30.07 in 9.0 mi SE 3.5 mph - N/A   Clear
6:15 PM 71.6 °F - 44.6 °F 38% 30.07 in 9.0 mi SE 5.8 mph - N/A   Clear
6:35 PM 71.6 °F - 44.6 °F 38% 30.07 in 8.0 mi SE 3.5 mph - N/A   Clear
6:55 PM 68.0 °F - 46.4 °F 46% 30.07 in 9.0 mi SSE 4.6 mph - N/A   Clear
7:15 PM 68.0 °F - 46.4 °F 46% 30.06 in 8.0 mi SE 3.5 mph - N/A   Clear
7:35 PM 66.2 °F - 46.4 °F 49% 30.06 in 9.0 mi Calm Calm - N/A   Clear
7:55 PM 64.4 °F - 48.2 °F 56% 30.06 in 9.0 mi Calm Calm - N/A   Clear
8:15 PM 62.6 °F - 48.2 °F 59% 30.06 in 9.0 mi ESE 3.5 mph - N/A   Clear
8:35 PM 60.8 °F - 48.2 °F 63% 30.06 in 10.0 mi Calm Calm - N/A   Clear
8:55 PM 59.0 °F - 48.2 °F 67% 30.07 in 10.0 mi Calm Calm - N/A   Clear
9:15 PM 59.0 °F - 48.2 °F 67% 30.07 in 10.0 mi Calm Calm - N/A   Clear
9:35 PM 59.0 °F - 48.2 °F 67% 30.08 in 9.0 mi Calm Calm - N/A   Clear
9:55 PM 57.2 °F - 48.2 °F 72% 30.09 in 10.0 mi Calm Calm - N/A   Clear
10:15 PM 55.4 °F - 48.2 °F 77% 30.09 in 8.0 mi Calm Calm - N/A   Clear
10:35 PM 55.4 °F - 50.0 °F 82% 30.09 in 9.0 mi Calm Calm - N/A   Clear
10:55 PM 55.4 °F - 50.0 °F 82% 30.09 in 9.0 mi Calm Calm - N/A   Clear
11:15 PM 57.2 °F - 48.2 °F 72% 30.08 in 9.0 mi SSE 3.5 mph - N/A   Clear
11:35 PM 59.0 °F - 48.2 °F 67% 30.08 in 9.0 mi Calm Calm - N/A   Clear
11:55 PM 59.0 °F - 48.2 °F 67% 30.08 in 9.0 mi SE 3.5 mph - N/A   Clear